Skip Page Navigation
NASA JPL Caltech
NASA Logo - Jet Propulsion Laboratory + View the NASA Portal
+ Center for Near-Earth Object Studies
JPL Home Earth Solar System Stars & Galaxies Technology
JPL Solar System Dynamics
BODIES ORBITS EPHEMERIDES TOOLS PHYSICAL DATA DISCOVERY FAQ SITE MAP
JPL Small-Body Database Browser
Search: [ help ]  
312225 (2007 XP1)
Classification: Main-belt Asteroid          SPK-ID: 2312225
Ephemeris | Orbit Diagram | Orbital Elements | Mission Design | Physical Parameters | Discovery Circumstances | Close-Approach Data ]

[ show orbit diagram ]
Orbital Elements at Epoch 2459000.5 (2020-May-31.0) TDB
Reference: JPL 12 (heliocentric ecliptic J2000)
 Element Value Uncertainty (1-sigma)   Units 
e .1539456969396713 6.8763e-08  
a 2.433621868541724 1.7579e-08 au
q 2.058976253901443 1.589e-07 au
i 3.654793819029278 4.1845e-06 deg
node 81.8660773951103 0.00013186 deg
peri 42.32265663619978 0.00013659 deg
M 65.25378696076389 3.5e-05 deg
tp 2458749.148607381929
(2019-Sep-22.64860738)
0.00013332 TDB
period 1386.685824026023
3.80
1.5025e-05
4.114e-08
d
yr
n .259611797973673 2.8129e-09 deg/d
Q 2.808267483182005 2.0285e-08 au
  Orbit Determination Parameters
   # obs. used (total)      186  
   data-arc span      6951 days (19.03 yr)  
   first obs. used      2001-04-16  
   last obs. used      2020-04-27  
   planetary ephem.      DE431  
   SB-pert. ephem.      SB431-N16  
   condition code      0  
   norm. resid. RMS      .63193  
   source      ORB  
   producer      Otto Matic  
   solution date      2020-May-21 20:26:59  

Additional Information
 Earth MOID = 1.07633 au 
 Jupiter MOID = 2.25894 au 
 T_jup = 3.487 
[ show covariance matrix ]

Ephemeris | Orbit Diagram | Orbital Elements | Mission Design | Physical Parameters | Discovery Circumstances | Close-Approach Data ]

Physical Parameter Table
Parameter Symbol Value Units Sigma Reference Notes
absolute magnitude H 17.7   n/a MPO455301  

312225 (2007 XP1)          Discovered 2007-Dec-03 by CSS at Catalina
Reference: 20120109/Numbers.arcLast Updated: 2012-01-11

[ show close-approach data ]
Alternate Designations
 2007 XP1 = 2005 GH206 
Ephemeris | Orbit Diagram | Orbital Elements | Mission Design | Physical Parameters | Discovery Circumstances | Close-Approach Data ]
ABOUT SSD CREDITS/AWARDS PRIVACY/COPYRIGHT GLOSSARY LINKS
FirstGov 2020-Aug-05 19:19 UT
(server date/time)  
NASA Home Page
Site Manager:   Ryan S. Park
Webmaster  Alan B. Chamberlin